User: anonymous   Login
Location: Unspecified
(0.0000°N, 0.0000°E)
Time: 05:47:47
(UTC+00:00)
Language:

STARLINK-33597 - Orbit

View from above orbital plane
View from above orbital plane
View from above satellite
View from above satellite

Ground track
Ground track

The orbit is defined by the following mean orbital elements,

1 62763U          26145.52168919 +.00000000 +00000-0 +62631-3 0 00007
2 62763  53.1598 325.6392 0001229  90.3284 269.7858 15.31718588    09
Epoch (UTC): 25 May 2026 12:31:13
Eccentricity: 0.0001229
inclination: 53.1598°
perigee height: 470 km
apogee height: 472 km
right ascension of ascending node: 325.6392°
argument of perigee: 90.3284°
revolutions per day: 15.31718588
mean anomaly at epoch: 269.7858°

The dashed part of the orbit path shows where the satellite is in the earth's shadow,  

DLR